Location: Zagreb
(45.8000°N, 16.0000°E)
Time: 19:33:34
(UTC+01:00)

Oscar 11 - Pass Details

Date: 30 October 2020
Orbit: 613 x 625 km, 97.6° (Epoch: 01 December)

Event Time Altitude Azimuth Distance (km) Brightness Sun altitude
Rises 05:06:26 0° 31° (NNE) 2,890 10.9 -15.7°
Reaches altitude 10° 05:09:33 10° 55° (NE) 1,978 10.4 -15.1°
Maximum altitude 05:11:58 15° 90° (E) 1,683 10.5 -14.7°
Drops below altitude 10° 05:14:23 10° 124° (SE) 1,970 10.6 -14.3°
Sets 05:17:28 0° 149° (SSE) 2,869 11.0 -13.8°
